This is the latest recevied weather packets stored in our database for station/object WW3TRG. If no packets are shown the sender has not sent any weather packets the latest 10 day(s).
| Time | Temp. | Humidity | Pressure | Rain* | Wind** | Luminosity | Snow |
|---|---|---|---|---|---|---|---|
| 1778151097 | 8.89° C | 83% | 1010.9 hPa | 0 mm | - | 28 W/m² | - |
| 1778150795 | 8.89° C | 83% | 1010.8 hPa | 0 mm | - | 29 W/m² | - |
| 1778150491 | 8.89° C | 83% | 1010.8 hPa | 0 mm | - | 24 W/m² | - |
| 1778150187 | 8.89° C | 85% | 1010.4 hPa | 0 mm | - | 15 W/m² | - |
| 1778149885 | 8.89° C | 86% | 1010.3 hPa | 0 mm | - | 9 W/m² | - |
| 1778149581 | 8.89° C | 90% | 1010.6 hPa | 0 mm | - | 6 W/m² | - |
| 1778149277 | 8.33° C | 93% | 1010.3 hPa | 0 mm | - | 4 W/m² | - |
| 1778148973 | 8.33° C | 98% | 1010.3 hPa | 0 mm | - | 2 W/m² | - |
| 1778148669 | 8.33° C | 98% | 1010.1 hPa | 0 mm | - | 2 W/m² | - |
| 1778148366 | 8.89° C | 97% | 1009.9 hPa | 0 mm | - | 0 W/m² | - |
| 1778148065 | 8.89° C | 97% | 1010 hPa | 0 mm | - | 0 W/m² | - |
| 1778147762 | 8.89° C | 96% | 1010 hPa | 0 mm | - | 0 W/m² | - |
| 1778147459 | 8.89° C | 94% | 1009.8 hPa | 0 mm | - | 0 W/m² | - |
| 1778147155 | 8.89° C | 91% | 1009.9 hPa | 0 mm | - | 0 W/m² | - |
| 1778146852 | 8.89° C | 89% | 1009.7 hPa | 0 mm | - | 0 W/m² | - |
| 1778146549 | 8.89° C | 91% | 1009.7 hPa | 0 mm | - | 0 W/m² | - |
| 1778146248 | 8.89° C | 89% | 1009.8 hPa | 0 mm | - | 0 W/m² | - |
| 1778145944 | 8.89° C | 88% | 1009.5 hPa | 0 mm | - | 0 W/m² | - |
| 1778145641 | 9.44° C | 90% | 1009.5 hPa | 0 mm | - | 0 W/m² | - |
| 1778145338 | 9.44° C | 85% | 1009.6 hPa | 0 mm | - | 0 W/m² | - |
| 1778145034 | 9.44° C | 85% | 1009.6 hPa | 0 mm | - | 0 W/m² | - |
| 1778144729 | 9.44° C | 84% | 1009.2 hPa | 0 mm | - | 0 W/m² | - |
| 1778144427 | 9.44° C | 86% | 1009.4 hPa | 0 mm | - | 0 W/m² | - |
| 1778144124 | 9.44° C | 87% | 1009.3 hPa | 0 mm | - | 0 W/m² | - |
| 1778143820 | 8.89° C | 93% | 1009.4 hPa | 0 mm | - | 0 W/m² | - |
* Rain latest hour (hover to see other rain measurements)
** Current wind speed in m/s (hover to see current wind gust speed)